EW8410 Jamestown RI US current weather conditions

sailwx.info

Air temperature 23.3° C
Dewpoint 19.7° C

Last reported at 2019-Aug-23 21:09 UTC.
Time now 2019-Aug-23 21:54 UTC

Location: N 41°33' W 071°22'.
View on Google Maps.

See reports from other nearby stations

  
Tides and Currents Weather Stations Pressure Air Temp Water Temp Dewpoint Dewpoint Depression Visibility Wind Speed Wind Dir Waves Ship Positions
date/time (UTC)wind fromknots sea level pressurealtimeterstation pressurevisibilityair tempwater tempwave heightnotes
2019-Aug-23 21:09 23.3
2019-Aug-23 21:00 23.3
2019-Aug-23 20:51 23.3
2019-Aug-23 20:42 23.3
2019-Aug-23 20:33 23.3
2019-Aug-23 20:30 187 23.3
2019-Aug-23 20:24 23.9
2019-Aug-23 20:15 23.9
2019-Aug-23 20:06 24.4
2019-Aug-23 20:00 187 23.9
2019-Aug-23 19:48 24.4
2019-Aug-23 19:39 188 24.4
2019-Aug-23 19:30 188 24.4
2019-Aug-23 19:21 188 24.4
2019-Aug-23 19:12 23.9
2019-Aug-23 19:03 188 23.9
2019-Aug-23 18:54 187 0 gusting 2 23.9
2019-Aug-23 18:45 184 23.3
2019-Aug-23 18:36 173 23.3
2019-Aug-23 18:27 23.3
2019-Aug-23 18:18 173 22.8
2019-Aug-23 18:15 173 0 gusting 2 22.2
2019-Aug-23 18:09 173 22.2
2019-Aug-23 18:00 173 0 gusting 1 22.2
2019-Aug-23 17:51 173 22.2
2019-Aug-23 17:45 173 21.7
2019-Aug-23 17:42 173 22.2
2019-Aug-23 17:33 22.2
2019-Aug-23 17:24 173 21.7
2019-Aug-23 17:15 173 0 gusting 1 21.7
2019-Aug-23 17:06 173 21.7
2019-Aug-23 16:57 173 21.1
2019-Aug-23 16:48 173 21.1
2019-Aug-23 16:45 174 20.6
2019-Aug-23 16:39 174 20.6
2019-Aug-23 16:30 201 20.6
2019-Aug-23 16:21 214 20.0
2019-Aug-23 16:15 214 19.4
2019-Aug-23 16:03 177 0 gusting 1 19.4
2019-Aug-23 15:54 179 19.4
2019-Aug-23 15:45 190 19.4
2019-Aug-23 15:36 208 18.9
2019-Aug-23 15:27 208 18.9
2019-Aug-23 15:18 175 18.9
2019-Aug-23 15:15 207 18.9
2019-Aug-23 15:09 154 18.9
2019-Aug-23 15:00 154 18.3
2019-Aug-23 14:51 18.3
2019-Aug-23 14:45 154 17.8
2019-Aug-23 14:33 17.8
2019-Aug-23 14:24 17.8
2019-Aug-23 14:15 17.8
2019-Aug-23 14:06 17.8
2019-Aug-23 13:57 17.8
2019-Aug-23 13:48 17.8
2019-Aug-23 13:45 154 17.2
2019-Aug-23 13:39 17.8
2019-Aug-23 13:30 17.8
2019-Aug-23 13:21 17.8
2019-Aug-23 13:15 154 17.8
2019-Aug-23 13:03 154 17.8
2019-Aug-23 12:54 17.8
2019-Aug-23 12:45 18.3
2019-Aug-23 12:36 18.3
2019-Aug-23 12:27 18.3
2019-Aug-23 12:18 18.3
2019-Aug-23 12:15 154 18.3
2019-Aug-23 12:09 18.3
2019-Aug-23 12:00 18.3
2019-Aug-23 11:51 18.3
2019-Aug-23 11:42 18.3
2019-Aug-23 11:33 18.3
2019-Aug-23 11:30 144 18.3
2019-Aug-23 11:24 18.3
2019-Aug-23 11:15 18.3
2019-Aug-23 11:06 18.3
2019-Aug-23 11:00 109 18.3
2019-Aug-23 10:48 18.9
2019-Aug-23 10:39 18.9
2019-Aug-23 10:30 18.9
2019-Aug-23 10:21 18.9
2019-Aug-23 10:12 18.9
2019-Aug-23 10:03 19.4
2019-Aug-23 10:00 109 18.9
2019-Aug-23 09:54 19.4
2019-Aug-23 09:45 19.4
2019-Aug-23 09:36 19.4
2019-Aug-23 09:30 109 19.4
2019-Aug-23 09:18 20.0
2019-Aug-23 09:09 20.0
2019-Aug-23 09:00 20.0
2019-Aug-23 08:51 20.6
2019-Aug-23 08:42 20.6
2019-Aug-23 08:33 20.6
2019-Aug-23 08:30 109 20.6
2019-Aug-23 08:24 21.1
2019-Aug-23 08:15 21.1
2019-Aug-23 08:06 21.1
2019-Aug-23 08:00 109 21.1
2019-Aug-23 07:48 21.7
2019-Aug-23 07:39 21.7
2019-Aug-23 07:30 21.7
2019-Aug-23 07:21 21.7
2019-Aug-23 07:12 22.2
2019-Aug-23 07:03 22.2
2019-Aug-23 07:00 109 22.2
2019-Aug-23 06:54 22.2
2019-Aug-23 06:45 22.2
2019-Aug-23 06:36 22.2
2019-Aug-23 06:30 109 22.2
2019-Aug-23 06:18 22.2
2019-Aug-23 06:09 22.8
2019-Aug-23 06:00 22.8
2019-Aug-23 05:51 22.8
2019-Aug-23 05:42 22.8
2019-Aug-23 05:33 22.8
2019-Aug-23 05:30 109 22.8
2019-Aug-23 05:24 22.8
2019-Aug-23 05:15 22.8
2019-Aug-23 05:06 22.8
2019-Aug-23 05:00 108 22.8
2019-Aug-23 04:48 23.3
2019-Aug-23 04:39 113 23.3
2019-Aug-23 04:30 175 23.3
2019-Aug-23 04:21 161 23.3
2019-Aug-23 04:12 23.3
2019-Aug-23 04:03 23.9
2019-Aug-23 04:00 161 23.3
2019-Aug-23 03:54 23.9
2019-Aug-23 03:45 23.9
2019-Aug-23 03:36 23.9
2019-Aug-23 03:30 161 23.9
2019-Aug-23 03:18 23.9
2019-Aug-23 03:09 24.4
2019-Aug-23 03:00 161 24.4
2019-Aug-23 02:51 161 24.4
2019-Aug-23 02:42 161 24.4
2019-Aug-23 02:33 175 0 gusting 3 24.4
2019-Aug-23 02:30 161 23.9
2019-Aug-23 02:24 173 24.4
2019-Aug-23 02:15 24.4
2019-Aug-23 02:06 24.4
2019-Aug-23 02:00 146 24.4
2019-Aug-23 01:48 24.4
2019-Aug-23 01:45 146 24.4
2019-Aug-23 01:39 146 25.0
2019-Aug-23 01:30 25.0
2019-Aug-23 01:21 25.0
2019-Aug-23 01:15 146 24.4
2019-Aug-23 01:03 135 25.0
2019-Aug-23 01:00 133 24.4
2019-Aug-23 00:54 132 25.0
2019-Aug-23 00:45 25.0
2019-Aug-23 00:36 25.0
2019-Aug-23 00:30 133 25.0
2019-Aug-23 00:18 105 0 gusting 2 25.0
2019-Aug-23 00:09 090 25.6
2019-Aug-23 00:00 193 25.6
2019-Aug-22 23:51 193 25.6
2019-Aug-22 23:45 193 25.6
2019-Aug-22 23:33 26.1
2019-Aug-22 23:24 26.1
2019-Aug-22 23:15 193 26.1
2019-Aug-22 23:06 193 26.7
2019-Aug-22 22:57 26.7
2019-Aug-22 22:48 194 26.7
2019-Aug-22 22:45 193 26.7
2019-Aug-22 22:39 184 26.7
2019-Aug-22 22:30 183 0 gusting 3 27.2
2019-Aug-22 22:21 208 0 gusting 3 27.2
2019-Aug-22 22:15 179 27.2
2019-Aug-22 22:03 215 0 gusting 2 27.2
2019-Aug-22 21:54 221 1 gusting 5 27.2
2019-Aug-22 21:45 197 1 gusting 5 27.8
2019-Aug-22 21:36 205 1 gusting 5 27.8
2019-Aug-22 21:27 204 0 gusting 4 27.8
2019-Aug-22 21:18 188 1 gusting 4 27.8
2019-Aug-22 21:15 200 1 gusting 4 27.8
2019-Aug-22 21:09 207 0 gusting 3 27.8
2019-Aug-22 21:00 202 1 gusting 4 28.3
2019-Aug-22 20:51 194 1 gusting 6 28.3
2019-Aug-22 20:45 247 28.3
2019-Aug-22 20:33 217 1 gusting 6 28.9
2019-Aug-22 20:30 210 2 gusting 6 28.9
2019-Aug-22 20:24 223 1 gusting 4 28.9
2019-Aug-22 20:15 270 0 gusting 6 28.9
2019-Aug-22 20:06 206 1 gusting 6 28.9
2019-Aug-22 20:00 192 2 gusting 5 28.9
2019-Aug-22 19:48 216 2 gusting 6 28.9
2019-Aug-22 19:39 219 2 gusting 7 28.9
2019-Aug-22 19:30 199 2 gusting 7 28.3
2019-Aug-22 19:21 218 2 gusting 6 28.3
2019-Aug-22 19:12 219 1 gusting 8 27.8
2019-Aug-22 19:03 223 1 gusting 6 27.8
2019-Aug-22 19:00 151 0 gusting 5 27.2
2019-Aug-22 18:54 232 1 gusting 5 27.8
2019-Aug-22 18:45 223 1 gusting 6 27.8
2019-Aug-22 18:36 242 2 gusting 6 27.2
2019-Aug-22 18:30 243 2 gusting 6 26.7
2019-Aug-22 18:18 223 1 gusting 6 26.7
2019-Aug-22 18:09 242 1 gusting 7 26.7
2019-Aug-22 18:00 244 27.8
2019-Aug-22 17:51 155 28.3
2019-Aug-22 17:42 088 0 gusting 2 28.9
2019-Aug-22 17:33 175 1 gusting 3 30.0
2019-Aug-22 17:30 175 0 gusting 3 29.4
2019-Aug-22 17:24 212 0 gusting 3 30.0
2019-Aug-22 17:15 220 1 gusting 7 30.0
2019-Aug-22 17:06 239 1 gusting 7 30.0
2019-Aug-22 17:00 240 0 gusting 7 30.0
2019-Aug-22 16:48 217 1 gusting 6 30.0
2019-Aug-22 16:39 235 2 gusting 6 30.0
2019-Aug-22 16:30 228 1 gusting 6 30.0
2019-Aug-22 16:21 225 1 gusting 6 30.0
2019-Aug-22 16:12 210 1 gusting 5 30.0
2019-Aug-22 16:03 222 1 gusting 5 30.0
2019-Aug-22 16:00 246 1 gusting 6 29.4
2019-Aug-22 15:54 250 0 gusting 5 29.4
2019-Aug-22 15:45 177 0 gusting 2 29.4
2019-Aug-22 15:36 242 0 gusting 6 28.9
2019-Aug-22 15:30 123 1 gusting 6 28.3
2019-Aug-22 15:18 211 0 gusting 3 28.9
2019-Aug-22 15:09 199 1 gusting 4 28.9
2019-Aug-22 15:00 216 0 gusting 4 28.3
2019-Aug-22 14:51 207 0 gusting 4 28.3
2019-Aug-22 14:42 195 0 gusting 5 27.8
2019-Aug-22 14:33 27.2
2019-Aug-22 14:30 124 26.7
2019-Aug-22 14:24 26.7
2019-Aug-22 14:15 190 26.1
2019-Aug-22 14:06 220 25.6
2019-Aug-22 14:00 220 25.0
2019-Aug-22 13:48 209 25.0
2019-Aug-22 13:39 197 0 gusting 3 24.4
2019-Aug-22 13:30 175 24.4
2019-Aug-22 13:21 24.4
2019-Aug-22 13:12 213 24.4
2019-Aug-22 13:03 125 24.4
2019-Aug-22 12:54 194 24.4
2019-Aug-22 12:45 23.9
2019-Aug-22 12:36 23.9
2019-Aug-22 12:27 23.9
2019-Aug-22 12:18 23.3
2019-Aug-22 12:15 190 23.3
2019-Aug-22 12:09 23.3
2019-Aug-22 12:00 23.3
2019-Aug-22 11:51 23.3
2019-Aug-22 11:45 191 23.3
2019-Aug-22 11:33 23.3
2019-Aug-22 11:24 23.3
2019-Aug-22 11:15 23.3
2019-Aug-22 11:06 23.3
2019-Aug-22 10:57 23.3
2019-Aug-22 10:48 23.3
2019-Aug-22 10:45 154 22.8
2019-Aug-22 10:39 23.3
2019-Aug-22 10:30 22.8
2019-Aug-22 10:21 22.8
2019-Aug-22 10:15 154 22.8
2019-Aug-22 10:03 22.8
2019-Aug-22 09:54 22.8
2019-Aug-22 09:45 22.8
2019-Aug-22 09:36 22.8
2019-Aug-22 09:27 22.8
2019-Aug-22 09:18 22.8
2019-Aug-22 09:15 154 22.8
2019-Aug-22 09:09 22.8
2019-Aug-22 09:00 23.3
2019-Aug-22 08:51 23.3
2019-Aug-22 08:42 23.3
2019-Aug-22 08:33 23.3
2019-Aug-22 08:30 171 22.8
2019-Aug-22 08:24 23.3
2019-Aug-22 08:15 23.3
2019-Aug-22 08:06 23.3
2019-Aug-22 08:00 171 23.3
2019-Aug-22 07:48 23.3
2019-Aug-22 07:39 23.3
2019-Aug-22 07:30 189 23.9
2019-Aug-22 07:21 188 23.9
2019-Aug-22 07:12 149 23.9
2019-Aug-22 07:03 185 0 gusting 4 23.9
2019-Aug-22 07:00 220 23.3
2019-Aug-22 06:54 210 23.9
2019-Aug-22 06:45 208 0 gusting 2 23.9
2019-Aug-22 06:36 208 0 gusting 2 23.9
2019-Aug-22 06:30 217 0 gusting 3 23.3
2019-Aug-22 06:18 194 23.9
2019-Aug-22 06:09 193 0 gusting 4 23.9
2019-Aug-22 06:00 241 23.9
2019-Aug-22 05:51 301 23.9
2019-Aug-22 05:42 183 0 gusting 2 23.9
2019-Aug-22 05:33 181 23.9
2019-Aug-22 05:30 190 23.3
2019-Aug-22 05:24 137 23.9
2019-Aug-22 05:15 23.9
2019-Aug-22 05:06 23.9
2019-Aug-22 05:00 138 23.3
2019-Aug-22 04:48 177 23.9
2019-Aug-22 04:39 217 23.9
2019-Aug-22 04:30 173 23.9
2019-Aug-22 04:21 184 0 gusting 3 23.9
2019-Aug-22 04:12 156 23.9
2019-Aug-22 04:03 144 23.9
2019-Aug-22 04:00 146 0 gusting 2 23.3
2019-Aug-22 03:54 139 23.9
2019-Aug-22 03:45 152 0 gusting 3 23.9
2019-Aug-22 03:36 103 0 gusting 3 23.9
2019-Aug-22 03:30 066 0 gusting 3 23.9
2019-Aug-22 03:18 080 0 gusting 3 24.4
2019-Aug-22 03:09 138 1 gusting 3 24.4
2019-Aug-22 03:00 114 1 gusting 6 24.4
2019-Aug-22 02:51 125 1 gusting 6 24.4
2019-Aug-22 02:42 148 2 gusting 7 24.4
2019-Aug-22 02:33 136 1 gusting 8 24.4
2019-Aug-22 02:24 130 1 gusting 6 24.4
2019-Aug-22 02:15 132 1 gusting 6 24.4
2019-Aug-22 02:06 149 1 gusting 6 24.4
2019-Aug-22 01:57 136 1 gusting 6 24.4
2019-Aug-22 01:48 158 1 gusting 8 25.0
2019-Aug-22 01:45 144 0 gusting 6 24.4
2019-Aug-22 01:39 196 1 gusting 6 25.0
2019-Aug-22 01:30 193 1 gusting 6 25.0
2019-Aug-22 01:21 183 1 gusting 7 25.0
2019-Aug-22 01:15 142 0 gusting 7 25.0
2019-Aug-22 01:03 214 1 gusting 6 25.0
2019-Aug-22 00:54 171 0 gusting 8 25.0
2019-Aug-22 00:45 197 1 gusting 6 25.0
2019-Aug-22 00:36 203 1 gusting 6 25.6
2019-Aug-22 00:30 157 1 gusting 4 25.0
2019-Aug-22 00:18 184 1 gusting 8 25.6
2019-Aug-22 00:09 182 2 gusting 8 25.0
2019-Aug-22 00:00 143 0 gusting 4 25.0
2019-Aug-21 23:51 196 1 gusting 5 25.0
2019-Aug-21 23:42 190 1 gusting 7 25.0
2019-Aug-21 23:33 193 1 gusting 6 25.0
2019-Aug-21 23:30 226 1 gusting 6 24.4
2019-Aug-21 23:24 226 0 gusting 4 25.0
2019-Aug-21 23:15 209 1 gusting 6 25.0
2019-Aug-21 23:06 176 0 gusting 6 25.0
2019-Aug-21 23:00 267 0 gusting 4 24.4
2019-Aug-21 22:48 221 1 gusting 7 25.0
2019-Aug-21 22:39 232 1 gusting 7 25.0
2019-Aug-21 22:30 219 1 gusting 6 25.0
2019-Aug-21 22:21 223 2 gusting 10 25.0
2019-Aug-21 22:12 203 2 gusting 7 25.0
2019-Aug-21 22:03 228 2 gusting 10 25.0
2019-Aug-21 22:00 180 2 gusting 10 25.0
2019-Aug-21 21:54 207 2 gusting 8 25.6
2019-Aug-21 21:45 201 1 gusting 8 25.6
2019-Aug-21 21:36 232 2 gusting 8 25.6
2019-Aug-21 21:27 223 1 gusting 8 25.6
2019-Aug-21 21:18 214 1 gusting 6 25.6
2019-Aug-21 21:15 232 0 gusting 6 25.6
2019-Aug-21 21:09 228 0 gusting 5 26.1
2019-Aug-21 21:00 207 0 gusting 3 26.1